Regional Weather Roundup
Issued by NWS

Current Version | Previous Version | Text Only | Print | Product List | Glossary On
Versions: 1 2 3 4 5 6 7 8 9 10 11 12 13 14 15 16 17 18 19 20 21 22 23 24 25 26 27 28 29 30 31 32 33 34 35 36 37 38 39 40 41 42 43 44 45 46 47 48 49 50
000
ASUS46 KSTO 202204
RWRCA

NORTHERN AND CENTRAL CA REGIONAL WEATHER ROUNDUP
NATIONAL WEATHER SERVICE SACRAMENTO CA
300 PM PDT SUN MAY 20 2018

NOTE: FAIR INDICATES FEW OR NO CLOUDS BELOW 12,000 FEET WITH NO
SIGNIFICANT WEATHER AND/OR OBSTRUCTIONS TO VISIBILITY.

CAZ001-003-202300-
NORTHWEST AREA

CITY           SKY/WX    TMP DP  RH WIND       PRES   REMARKS
CRESCENT CITY  CLOUDY    59  51  75 NW15G23   30.05F
UKIAH          MOSUNNY   69  45  41 N13       29.91F
$$

CAZ006-505>513-202300-
BAY AREA

CITY           SKY/WX    TMP DP  RH WIND       PRES   REMARKS
SANTA ROSA     MOSUNNY   73  51  46 SE10G18   29.86F
SAN RAFAEL     N/A       62  MM  MM MISG
NAPA           MOSUNNY  N/A N/A N/A SW15      29.90F
CONCORD        MOSUNNY   68  48  48 S16       29.91F
OAKLAND CITY   N/A      MM  MM  MM MISG
OAKLAND        PTSUNNY   61  49  64 W22       29.97F
SAN FRAN CITY  N/A       MM  MM  MM MISG
SAN FRAN ARPT  PTSUNNY   61  46  57 W23G33    29.97S
LIVERMORE      MOSUNNY   62  49  62 W17       29.95S
HAYWARD        PTSUNNY   62  47  57 W15       29.98F
REDWOOD CITY   N/A       MM  MM  MM MISG
MOFFETT ARPT   MOSUNNY   64  46  52 W15G23    29.98F
SAN JOSE ARPT  PTSUNNY   66  46  48 W13G20    29.97F
$$
CAZ034-037-514>518-202300-
CENTRAL COAST

CITY           SKY/WX    TMP DP  RH WIND       PRES   REMARKS
WATSONVILLE    PTSUNNY   65  51  60 SW12      29.97F
SALINAS        CLOUDY    61  46  57 W18       30.00F
MONTEREY       PTSUNNY   59  46  62 W12G21    30.03F
SAN LUIS OBISP PTSUNNY   63  49  60 NW18G28   29.95F
SANTA MARIA    PTSUNNY   62  49  62 NW20G29   29.97F
$$
CAZ015-016-202300-
NORTHERN SACRAMENTO VALLEY

CITY           SKY/WX    TMP DP  RH WIND       PRES   REMARKS
REDDING        SUNNY     79  51  37 S8G17     29.81F
RED BLUFF      SUNNY     76  52  43 SE12      29.84F
OROVILLE       SUNNY     74  51  44 S12G18    29.87F
$$
CAZ016>018-202300-
SOUTHERN SACRAMENTO VALLEY

CITY           SKY/WX    TMP DP  RH WIND       PRES   REMARKS
AUBURN         MOSUNNY   66  50  55 S7        29.90F
BEALE AFB      SUNNY     73  52  47 S9G16     29.85F
LINCOLN        FAIR      72  50  46 S6        29.86F
MARYSVILLE     SUNNY     75  55  49 VRB5      29.86F
SAC INTL ARPT  MOSUNNY   74  52  46 VRB6      29.86F
MATHER AIRPORT NOT AVBL
DOWNTOWN SAC   N/A       74  MM  MM MISG
SAC EXEC ARPT  SUNNY     71  52  50 SW12      29.87F
VACAVILLE      SUNNY     73  56  54 S16G26    29.87F
TRAVIS AFB     SUNNY     71  52  49 SW18G24   29.86F
$$
CAZ019>021-202300-
SAN JOAQUIN VALLEY

CITY           SKY/WX    TMP DP  RH WIND       PRES   REMARKS
STOCKTON       SUNNY     77  47  34 W13G22    29.88F
MODESTO        MOSUNNY   73  45  36 W8        29.87F
MERCED         MOSUNNY   77  49  37 N7        29.86F
LEMOORE        CLOUDY    79  44  28 VRB7      29.86F
FRESNO         PTSUNNY   79  46  31 W6        29.86F
HANFORD        SUNNY     80  44  27 MISG      29.87F
PORTERVILLE    SUNNY     79  46  31 VRB3      29.86F
BAKERSFIELD    SUNNY     80  45  28 NW12      29.84F
$$
CAZ011-012-071-202300-
NORTHERN MOUNTAINS

CITY           SKY/WX    TMP DP  RH WIND       PRES   REMARKS
YREKA          MOSUNNY   74  44  34 N20       29.89R
MOUNT SHASTA   PTSUNNY   62  46  55 VRB5      29.93R
ALTURAS        CLOUDY    65  41  41 NW16      29.92S
$$
CAZ011-012-071-202300-
SIERRA NEVADA MTNS

CITY           SKY/WX    TMP DP  RH WIND       PRES   REMARKS
BLUE CANYON    PTSUNNY   60  37  42 VRB5      29.99F
TRUCKEE        MOSUNNY   64  30  27 W14G20    29.97F
TAHOE VLY ARPT PTSUNNY   63  32  31 S8        29.96F
MAMMOTH LAKES  CLOUDY    62  28  28 W18G25    29.99S
$$



USA.gov is the U.S. government's official web portal to all federal, state and local government web resources and services.